This is the latest recevied weather packets stored in our database for station/object N6RDS-8. If no packets are shown the sender has not sent any weather packets the latest 10 day(s).
| Time | Temp. | Humidity | Pressure | Rain* | Wind** | Luminosity | Snow |
|---|---|---|---|---|---|---|---|
| 1778107951 | 25° C | 21% | 1017.9 hPa | 0 mm | - | 465 W/m² | - |
| 1778107647 | 25° C | 21% | 1017.7 hPa | 0 mm | - | 480 W/m² | - |
| 1778107345 | 23.89° C | 22% | 1017.8 hPa | 0 mm | - | 494 W/m² | - |
| 1778107041 | 23.89° C | 22% | 1017.9 hPa | 0 mm | - | 509 W/m² | - |
| 1778106737 | 25° C | 21% | 1017.8 hPa | 0 mm | - | 522 W/m² | - |
| 1778106434 | 25.56° C | 21% | 1018 hPa | 0 mm | - | 535 W/m² | - |
| 1778106129 | 25.56° C | 21% | 1018 hPa | 0 mm | - | 549 W/m² | - |
| 1778105828 | 26.11° C | 20% | 1018 hPa | 0 mm | - | 561 W/m² | - |
| 1778105526 | 25.56° C | 22% | 1017.9 hPa | 0 mm | - | 573 W/m² | - |
| 1778105222 | 25.56° C | 21% | 1018.1 hPa | 0 mm | - | 586 W/m² | - |
| 1778104922 | 25.56° C | 22% | 1018 hPa | 0 mm | - | 597 W/m² | - |
| 1778104619 | 25.56° C | 22% | 1018.1 hPa | 0 mm | - | 609 W/m² | - |
| 1778104314 | 25° C | 22% | 1018.1 hPa | 0 mm | - | 619 W/m² | - |
| 1778104012 | 24.44° C | 21% | 1018.2 hPa | 0 mm | - | 629 W/m² | - |
| 1778103709 | 23.89° C | 22% | 1018.2 hPa | 0 mm | - | 640 W/m² | - |
| 1778103407 | 23.89° C | 22% | 1018.4 hPa | 0 mm | - | 651 W/m² | - |
| 1778103104 | 23.89° C | 22% | 1018.5 hPa | 0 mm | - | 661 W/m² | - |
| 1778102801 | 24.44° C | 22% | 1018.5 hPa | 0 mm | - | 672 W/m² | - |
| 1778102496 | 25° C | 21% | 1018.4 hPa | 0 mm | - | 680 W/m² | - |
| 1778102192 | 25° C | 22% | 1018.7 hPa | 0 mm | - | 688 W/m² | - |
| 1778101889 | 23.89° C | 23% | 1018.6 hPa | 0 mm | - | 696 W/m² | - |
| 1778101586 | 23.89° C | 23% | 1018.7 hPa | 0 mm | - | 705 W/m² | - |
| 1778101282 | 23.89° C | 23% | 1018.6 hPa | 0 mm | - | 712 W/m² | - |
| 1778100980 | 24.44° C | 22% | 1018.8 hPa | 0 mm | - | 720 W/m² | - |
| 1778100674 | 23.33° C | 21% | 1019 hPa | 0 mm | - | 725 W/m² | - |
* Rain latest hour (hover to see other rain measurements)
** Current wind speed in m/s (hover to see current wind gust speed)